Regional Weather Roundup
Issued by NWS

Home | Current Version | Previous Version | Graphics & Text | Print | Product List | Glossary On
Versions: 1 2 3 4 5 6 7 8 9 10 11 12 13 14 15 16 17 18 19 20 21 22 23 24 25 26 27 28 29 30 31 32 33 34 35 36 37 38 39 40 41 42 43 44 45 46 47 48 49 50
000
ASUS45 KPSR 122110
RWRAZ

ARIZONA REGIONAL HOURLY WEATHER ROUNDUP
NATIONAL WEATHER SERVICE PHOENIX AZ
200 PM MST SAT JUL 12 2014

NOTE: FAIR INDICATES FEW OR NO CLOUDS BELOW 12,000 FEET WITH NO
SIGNIFICANT WEATHER AND/OR OBSTRUCTIONS TO VISIBILITY.

AZZ001>003-036-122200-
NORTHWEST ARIZONA

CITY           SKY/WX    TMP DP  RH WIND       PRES   REMARKS
BULLHEAD CITY  PTSUNNY  106 N/A N/A W6        29.86F
KINGMAN        MOSUNNY   99  42  14 SW14      30.07F
$$

AZZ004>008-015-016-018-122200-
NORTH CENTRAL ARIZONA

CITY           SKY/WX    TMP DP  RH WIND       PRES   REMARKS
GRAND CANYON   PTSUNNY   87  43  21 NE8       30.32S
WILLIAMS       PTSUNNY   82  45  26 E8        30.36F
PRESCOTT       PTSUNNY   90  43  19 VRB5      30.17F
FLAGSTAFF      MOSUNNY   84  46  26 VRB7G20   30.33F
PAYSON         CLOUDY    79  57  47 SE8G16    30.21R THUNDER
PAGE           SUNNY     98  42  14 N8        30.11F
$$

AZZ009>014-017-122200-
NORTHEAST ARIZONA

CITY           SKY/WX    TMP DP  RH WIND       PRES   REMARKS
WINSLOW        FAIR      92  48  22 VRB3      30.14F
SAINT JOHNS    SUNNY     89  43  20 VRB3      30.19F
WINDOW ROCK    PTSUNNY   87  46  24 VRB6      30.28F
SHOW LOW       MOSUNNY   82  45  26 CALM      30.28S
$$

AZZ023-122200-
GREATER PHOENIX AREA

CITY           SKY/WX    TMP DP  RH WIND       PRES   REMARKS
PHOENIX        MOSUNNY  106  43  12 VRB6      29.84F HX 101
BUCKEYE          N/A    104  41  11 S8        29.86F
GLENDALE       MOSUNNY  106  45  12 S6        29.87F HX 101
DEER VALLEY    SUNNY    102  49  16 W9        29.87F
SCOTTSDALE     SUNNY    104  50  16 W8        29.89F HX 101
MESA-FALCON    MOSUNNY  104  52  17 S6        29.87F HX 101
MESA-GATEWAY   MOSUNNY  102  46  15 NW9       29.90F
CHANDLER       PTSUNNY  104  45  13 S9        29.86F HX 100
$$

AZZ027-028-122200-
SOUTHWEST MARICOPA COUNTY AND PINAL COUNTY

CITY           SKY/WX    TMP DP  RH WIND       PRES   REMARKS
CASA GRANDE    SUNNY    102  48  16 W7        29.90F
$$

AZZ503-504-507>509-122200-
SOUTHEAST ARIZONA

CITY           SKY/WX    TMP DP  RH WIND       PRES   REMARKS
TUCSON         MOSUNNY   96  54  24 CALM      29.99F
RYAN FIELD       N/A     99  54  22 NE6       29.98
NOGALES        PTSUNNY   91  56  30 VRB5      30.07F
SIERRA VISTA   PTSUNNY   86  56  35 VRB5      30.14F
DOUGLAS        SUNNY     91  58  32 N7        30.08F
SAFFORD        MOSUNNY   96  51  21 S7        29.98F
$$

AZZ020-021-025-026-031-122200-
SOUTHWEST ARIZONA

CITY           SKY/WX    TMP DP  RH WIND       PRES   REMARKS
YUMA           SUNNY    106  38   9 SW5       29.84F HX 100
$$

CAZ031-033-041-043-047-048-061-122200-
SOUTHERN CALIFORNIA

CITY           SKY/WX    TMP DP  RH WIND       PRES   REMARKS
DOWNTOWN L.A.  SUNNY     80  61  52 VRB6      29.97F
L.A. AIRPORT   PTSUNNY   73  61  65 W12       30.00S
SAN DIEGO      PTSUNNY   75  60  59 NW10      30.00F
BURBANK        SUNNY     83  59  44 S9        29.97F
ONTARIO        PTSUNNY   88  55  32 SW8       29.97F
RIVERSIDE      MOSUNNY   87  55  33 VRB7      29.97F
PALM SPRINGS   MOSUNNY  108  37   9 SE9       29.88F HX 101
EL CENTRO NAS  MOSUNNY  103  45  14 VRB3      29.82F
IMPERIAL       SUNNY    104  43  12 VRB7      29.82F
BLYTHE         MOSUNNY  106  42  11 VRB3      29.85F HX 101
NEEDLES        CLOUDY   107  39  10 SW3       29.87F HX 101
$$

NVZ020-UTZ003-122200-
SOUTHERN NEVADA-UTAH

CITY           SKY/WX    TMP DP  RH WIND       PRES   REMARKS
LAS VEGAS      PTSUNNY  102  36  10 VRB3      29.95F
SALT LAKE CITY MOSUNNY   92  52  25 N8        30.15F
$$

NMZ009-TXZ055-122200-
NEW MEXICO-WEST TEXAS

CITY           SKY/WX    TMP DP  RH WIND       PRES   REMARKS
ALBUQUERQUE    MOSUNNY   88  53  30 SW10      30.18F
EL PASO        TSTM      73  64  73 SE21G30   30.12R
$$


........................KEY........................
SKY/WX - SKY CONDITION/WEATHER
TMP    - TEMPERATURE IN FAHRENHEIT
DP     - DEW POINT IN FAHRENHEIT
RH     - RELATIVE HUMIDITY IN PERCENT
WIND   - DIRECTION AND SPEED IN MILES PER HOUR (MPH)
VRB    - VARIABLE WIND DIRECTION
PRES   - MEAN SEA LEVEL PRESSURE IN INCHES OF MERCURY
         F - FALLING PRESSURE   R - RISING PRESSURE
         S - STEADY PRESSURE
VSB    - VISIBILITY IN MILES
HX     - HEAT INDEX IN FAHRENHEIT
WCI    - WIND CHILL INDEX IN FAHRENHEIT
TC     - TEMPERATURE IN CELSIUS WHICH IS ALSO KNOWN AS
         TEMPERATURE IN CENTIGRADE
AFB    - AIR FORCE BASE
         LUKE AFB IS LUKE AIR FORCE BASE
         DAVIS-MONTHAN IS DAVIS-MONTHAN AIR FORCE BASE
NAS    - NAVAL AIR STATION
         EL CENTRO NAS IS EL CENTRO NAVAL AIR STATION
N/A    - NOT AVAILABLE


USA.gov is the U.S. government's official web portal to all federal, state and local government web resources and services.